Location: Newark
(52.8300°N, 8.0000°E)
Time: 00:34:38
(UTC+00:00)

STARLINK-1102 - Pass Details

Date: 31 January 2020
Orbit: 548 x 551 km, 53.0° (Epoch: 23 February)

Event Time Altitude Azimuth Distance (km) Brightness Sun altitude
Rises 16:54:26 0° 285° (WNW) 2,726 8.2 -6.9°
Reaches altitude 10° 16:56:43 10° 281° (W) 1,831 7.3 -7.3°
Maximum altitude 17:00:45 52° 205° (SSW) 693 4.5 -7.8°
Drops below altitude 10° 17:04:47 10° 129° (SE) 1,826 6.0 -8.4°
Enters shadow 17:07:20 -1° 124° (SE) 2,831 6.9 -8.8°
